Regional Weather Roundup
Issued by NWS

Home | Current Version | Previous Version | Graphics & Text | Print | Product List | Glossary On
Versions: 1 2 3 4 5 6 7 8 9 10 11 12 13 14 15 16 17 18 19 20 21 22 23 24 25 26 27 28 29 30 31 32 33 34 35 36 37 38 39 40 41 42 43 44 45 46 47 48 49 50
000
ASUS43 KLMK 251902
RWRKY
KENTUCKY REGIONAL WEATHER ROUNDUP
NATIONAL WEATHER SERVICE LOUISVILLE KY
200 PM EST SAT FEB 25 2017

NOTE "FAIR" INDICATES FEW OR NO CLOUDS BELOW 12,000 FEET
WITH NO SIGNIFICANT WEATHER AND/OR OBSTRUCTIONS TO VISIBILITY.

KYZ001>023-026-027-061>063-070>075-252000-
WESTERN AND SOUTH CENTRAL KENTUCKY

CITY           SKY/WX    TMP DP  RH WIND       PRES   REMARKS
PADUCAH        SUNNY     41  16  36 NW12G21   30.07S
HENDERSON      MOSUNNY   39  19  45 W15G21    30.04F WCI  31
OWENSBORO      PTSUNNY   37  20  50 NW18      30.04F WCI  27
HOPKINSVILLE   SUNNY     42  20  41 W13       30.03F
BOWLING GREEN  MOSUNNY   40  18  41 W10G18    30.03F WCI  33
GLASGOW        NOT AVBL
$$

KYZ024-025-028>034-038-045-046-053-252000-
NORTH CENTRAL KENTUCKY

CITY           SKY/WX    TMP DP  RH WIND       PRES   REMARKS
LOUISVILLE/SDF PTSUNNY   37  19  48 W16G24    29.99S WCI  28
LOUISVILLE/LOU CLOUDY    36  18  48 W17G28    29.99S WCI  26
FORT KNOX      CLOUDY    34  22  61 W12       29.97S WCI  25
$$

KYZ035>037-039>044-047>052-055>060-089>105-252000-
NORTHEAST KENTUCKY

CITY           SKY/WX    TMP DP  RH WIND       PRES   REMARKS
LEXINGTON      CLOUDY    36  21  54 W15       29.94R WCI  27
COVINGTON      CLOUDY    32  19  58 W20G26    29.90R WCI  20
FRANKFORT      CLOUDY    35  19  52 W12G24    29.94R WCI  27
$$

KYZ054-064>069-076>088-106>120-252000-
SOUTHEAST KENTUCKY

CITY           SKY/WX    TMP DP  RH WIND       PRES   REMARKS
JACKSON        PTSUNNY   43  27  53 NW10G21   29.87R
LONDON         CLOUDY    42  23  46 W12       29.92S
SOMERSET       PTSUNNY   39  23  52 NW17      29.98R WCI  30
MIDDLESBORO    MOSUNNY   47  31  53 NW16G23   29.90R
MONTICELLO     PTCLDY    43  24  47 W13G25    29.98R
$$





USA.gov is the U.S. government's official web portal to all federal, state and local government web resources and services.